Location: Brno
(49.2000°N, 16.6330°E)
Time: 03:48:44
(UTC+02:00)

Cosmos 2227 - Visible Passes

Search period start: 19 April 2014 00:00
Search period end: 29 April 2014 00:00
Orbit: 835 x 862 km, 71.0° (Epoch: 17 April)

Date Brightness Start Highest point End Pass type
(mag) Time Alt. Az. Time Alt. Az. Time Alt. Az.
19 Apr 6.9 00:00:00 17° NNW 23:59:48 17° NW 00:03:21 10° N visible
19 Apr 7.5 03:33:34 10° NNE 03:34:04 10° NNE 03:34:33 10° NNE visible
19 Apr 6.4 05:15:21 10° NNW 05:20:17 30° NE 05:25:11 10° ESE visible
19 Apr 4.7 21:55:47 10° SW 22:01:24 63° WNW 22:07:01 10° NNE visible
19 Apr 6.9 23:43:13 10° WNW 23:46:47 17° NW 23:50:22 10° N visible
20 Apr 7.6 03:20:46 10° NNE 03:21:03 10° NNE 03:21:20 10° NNE visible
20 Apr 6.4 05:02:22 10° NNW 05:07:17 30° NE 05:12:10 10° ESE visible
20 Apr 4.7 21:42:47 10° SW 21:48:24 63° WNW 21:54:01 10° NNE visible
20 Apr 7.0 23:30:11 10° WNW 23:33:47 17° NW 23:37:23 10° N visible
21 Apr 6.4 04:49:23 10° NNW 04:54:16 30° NE 04:59:09 10° ESE visible
21 Apr 4.7 21:29:47 10° SW 21:35:24 64° WNW 21:41:01 10° NNE visible
21 Apr 7.0 23:17:09 10° WNW 23:20:46 17° NW 23:24:23 10° N visible
22 Apr 6.4 04:36:23 10° NNW 04:41:16 29° NE 04:46:08 10° ESE visible
22 Apr 4.7 21:16:47 10° SW 21:22:24 65° WNW 21:28:02 10° NNE visible
22 Apr 7.0 23:04:07 10° WNW 23:07:45 17° NW 23:11:24 10° N visible
23 Apr 6.4 04:23:24 10° NNW 04:28:16 29° NE 04:33:06 10° ESE visible
23 Apr 4.7 21:03:47 10° SW 21:09:24 66° WNW 21:15:02 10° NNE visible
23 Apr 7.1 22:51:05 10° WNW 22:54:45 17° NW 22:58:25 10° N visible
24 Apr 6.4 04:10:24 10° NNW 04:15:15 29° NE 04:20:05 10° ESE visible
24 Apr 4.7 20:50:47 10° SW 20:56:24 66° WNW 21:02:02 10° NNE visible
24 Apr 7.1 22:38:02 10° WNW 22:41:44 17° NW 22:45:26 10° N visible
25 Apr 6.4 03:57:25 10° NNW 04:02:15 28° NE 04:07:03 10° ESE visible
25 Apr 4.7 20:37:46 10° SW 20:43:24 67° WNW 20:49:02 10° NNE visible
25 Apr 7.1 22:25:00 10° WNW 22:28:43 18° NW 22:32:26 10° N visible
26 Apr 6.4 03:44:25 10° NNW 03:49:14 28° NE 03:54:02 10° ESE visible
26 Apr 7.2 22:11:58 10° WNW 22:15:42 18° NW 22:19:27 10° N visible
27 Apr 6.4 03:31:25 10° NNW 03:36:14 28° NE 03:41:00 10° ESE visible
27 Apr 7.2 21:58:55 10° WNW 22:02:41 18° NW 22:06:27 10° N visible
28 Apr 6.4 03:18:26 10° NNW 03:23:13 28° NE 03:27:59 10° ESE visible
28 Apr 4.2 05:02:19 10° NNW 05:07:53 66° WSW 05:13:26 10° SSE visible
28 Apr 7.2 21:45:53 10° W 21:49:40 18° NW 21:53:28 10° N visible
